C/2019 A5 ( PanSTARRS )

Japanese version
Home page
Updated on May 20, 2019

---------------------------------------------------------------------

* Profile

Discovery Date January 4, 2019
Magnitude 20.4 mag
Discoverer Pan-STARRS 1 telescope (Haleakala)

* Pictures

* Orbital Elements

Epoch 2019 June 6.0 TT = JDT 2458640.5
T 2019 June  9.52677 TT                                 MPCW
q   6.3239966            (2000.0)            P               Q
n   0.00978433     Peri.  356.04628     -0.81855487     -0.26732214
a  21.6495429      Node   146.61988     +0.54912085     -0.62397618
e   0.7078924      Incl.   67.53415     +0.16862446     +0.73429735
P 101
From 46 observations 2019 Jan. 4-May 6, mean residual 0".2.

* Magnitudes Graph

        m1 = 9.0 + 5 log d + 10.0 log r

---------------------------------------------------------------------

The orbital elements are published on M.P.E.C. 2019-J142.
The magnitudes graphs are made with Comet for Windows.

---------------------------------------------------------------------

Copyright(C) Seiichi Yoshida (comet@aerith.net). All rights reserved.